This demonstration page uses our WeatherBlox Daily Observations layout. Learn more.

Left ArrowRight Arrow

Hourly Observations for November 27, 2016

Temp ( °F °C ) Dew Point ( °F °C ) Humidity (%) Winds ( mph kmh ) Pressure ( in mb ) Visibility ( mi km ) Precip ( " mm )
12:53 am 00:53 Clear 34 1.1 27 -2.8 76 76 Calm 30.23 1024 10 16 0.00 0.00
1:53 am 01:53 Clear 32 0 27 -2.8 82 82 Calm 30.23 1024 10 16 0.00 0.00
2:53 am 02:53 Clear 32 0 27 -2.8 82 82 Calm 30.25 1024 10 16 0.00 0.00
3:53 am 03:53 Clear 28 -2.2 25 -3.9 88 88 NE 3 6 30.26 1025 10 16 0.00 0.00
4:53 am 04:53 Clear 30 -1.1 26 -3.3 85 85 Calm 30.25 1025 10 16 0.00 0.00
5:53 am 05:53 Clear 29 -1.7 26 -3.3 89 89 Calm 30.27 1025 10 16 0.00 0.00
6:53 am 06:53 Clear 29 -1.7 25 -3.9 85 85 Calm 30.27 1025 10 16 0.00 0.00
7:53 am 07:53 Sunny 28 -2.2 25 -3.9 88 88 NE 3 6 30.27 1025 9 14 0.00 0.00
8:53 am 08:53 Sunny 37 2.8 31 -0.6 79 79 Calm 30.29 1026 10 16 0.00 0.00
9:53 am 09:53 Sunny 46 7.8 31 -0.6 56 56 Calm 30.28 1025 10 16 0.00 0.00
10:53 am 10:53 Sunny 52 11.1 27 -2.8 38 38 SE 8 13 30.27 1025 10 16 0.00 0.00
11:53 am 11:53 Sunny 55 12.8 28 -2.2 35 35 SE 5 7 30.25 1024 10 16 0.00 0.00
12:53 pm 12:53 Sunny 58 14.4 29 -1.7 33 33 SE 3 6 30.22 1023 10 16 0.00 0.00
1:53 pm 13:53 Sunny 58 14.4 30 -1.1 35 35 S 8 13 30.18 1022 10 16 0.00 0.00
2:53 pm 14:53 Sunny 60 15.6 29 -1.7 31 31 SE 9 15 30.15 1021 10 16 0.00 0.00
3:53 pm 15:53 Sunny 60 15.6 29 -1.7 31 31 VRB 5 7 30.15 1021 10 16 0.00 0.00
4:53 pm 16:53 Sunny 59 15 28 -2.2 31 31 ESE 3 6 30.16 1021 10 16 0.00 0.00
5:53 pm 17:53 Clear 56 13.3 29 -1.7 36 36 E 3 6 30.15 1021 10 16 0.00 0.00
6:53 pm 18:53 Clear 55 12.8 28 -2.2 35 35 E 5 7 30.13 1020 10 16 0.00 0.00
7:53 pm 19:53 Clear 54 12.2 28 -2.2 37 37 E 5 7 30.13 1020 10 16 0.00 0.00
8:53 pm 20:53 Clear 53 11.7 28 -2.2 38 38 E 5 7 30.14 1021 10 16 0.00 0.00
9:53 pm 21:53 Clear 53 11.7 28 -2.2 38 38 E 7 11 30.14 1021 10 16 0.00 0.00
10:53 pm 22:53 Clear 52 11.1 28 -2.2 40 40 ESE 7 11 30.12 1020 10 16 0.00 0.00
11:53 pm 23:53 Clear 51 10.6 29 -1.7 43 43 E 6 9 30.12 1020 10 16 0.00 0.00

Powered by AerisWeather